Regional Weather Roundup
Issued by NWS Goodland, KS

Home | Current Version | Previous Version | Graphics & Text | Print | Product List | Glossary On
Versions: 1 2 3 4 5 6 7 8 9 10 11 12 13 14 15 16 17 18 19 20 21 22 23 24 25 26 27 28 29 30 31 32 33 34 35 36 37 38 39 40 41 42 43 44 45 46 47 48 49 50
000
ASUS43 KGLD 260508
RWRGLD

GOODLAND FORECAST AREA HOURLY WEATHER ROUNDUP
NATIONAL WEATHER SERVICE GOODLAND KS
1100 PM MDT FRI JUL 25 2014

...OFFICIAL OBSERVATIONS...

CITY           SKY/WX    TMP DP  RH WIND       PRES   REMARKS
GOODLAND KS    TSTM      75  67  76 W12       29.99F
HILL CITY KS   MOCLDY    79  69  71 E5        29.85S
IMPERIAL NEB   CLOUDY    74  66  76 N6        29.95S
MCCOOK NEB     MOCLDY    74  69  85 N10       29.89S
AKRON CO       CLOUDY    80  47  31 CALM      30.06F
BURLINGTON CO  CLOUDY    71  61  70 S3        30.03F
LIMON CO       MOCLDY    68  55  63 NW7       30.12F
$$

...UNOFFICIAL OBSERVATIONS...

CITY           SKY/WX    TMP DP  RH WIND       PRES   REMARKS
COLBY KS       MOCLDY    79  70  73 CALM      29.93S
GOVE KS          N/A     82  32  16 MISG        N/A
LENORA KS        N/A     79  32  18 MISG        N/A
NORTON KS      CLEAR     73  64  73 NE5       29.84F
OBERLIN KS     FAIR      72  66  83 CALM      29.88S
SHARON SPRINGS   N/A     67  62  85 N20G35      N/A
ST FRANCIS KS  CLOUDY    77  63  61 CALM      29.97S
TRIBUNE KS     CLOUDY    70 N/A N/A NW20      30.04S
KIT CARSON CO    N/A     72  63  72 CALM        N/A
YUMA CO          N/A     75  59  57 CALM        N/A
$$


USA.gov is the U.S. government's official web portal to all federal, state and local government web resources and services.